DMSP 5D-2 F13 DEB, 40560

Orbit data source: Space-Track

DMSP 5D-2 F13 DEB, 40560 is space debris in SSO originally from a launch on Fri, 24 Mar 1995 UTC launched from the Air Force Western Test Range (AFWTR). Debris objects in space refer to the collection of defunct objects orbiting the Earth. Examples of debris include non-operational satellites, rocket bodies, and fragments generated from explosions, collisions, or faulty payload assembly.

Loading next visibility...
Identifier
40560, 1995-015DT
Orbit
SSO
Country
Flag of USUS
Related business
Manufacturer
Unknown
Mission
Spacecraft
Bus & Motor
Unknown
Mass
Unknown
Launch date (UTC)
1995-03-24 (31 years ago)
Launch vehicle
Unknown
Launch site
Air Force Western Test Range (AFWTR)
Object type
Payload
Rocket body
Debris
Shape & HBR
Unknown shape, 0.1 m
Radar Cross Section
Small (<0.1 m²)

Expand to show TLE details & history
Last TLE update: 1 day ago

TLE from 1 day ago
0 DMSP 5D-2 F13 DEB
1 40560U 95015DT  25297.34194275  .00007713  00000-0  23472-2 0  9993
2 40560  98.6146 333.6272 0012006 200.1565 159.9151 14.42274974549390
Epoch: 2025-10-24T08:12Z
TLE epoch observation values (Epoch: 2025-10-24T08:12:23.853Z)
Latitude
-0.00008°
Longitude
177.5396°
Altitude
761.981 km
Speed
7.469 km/s
True Right ascension
22h 14m 30s
True Declination
0° 00' 00"
Sunlit
Object was in full shadow at epoch
Visualization orbit readout
Latitude
Unknown
Longitude
Unknown
Altitude
Unknown
Speed
Unknown
Apparent Right ascension
Unknown
Apparent Declination
Unknown
Sunlit
N/A
Visualization observer readout
Local Sidereal Time
14:53:47
Azimuth
Unknown
Elevation
Unknown
Doppler factor
Unknown
Orbital elements
Apogee altitude
756.672 km
Perigee altitude
739.56 km
Semi-major axis
7,126.253 km
Eccentricity
0.0012
Inclination
98.6146°
RAAN
333.6272°
Arg. of periapsis
200.1565°
True anomaly
159.96228°
Mean anomaly
159.9151°
Eccentric anomaly
159.9387°
Mean motion
3.60787 °/min
Orbital period
99.78 mins
BSTAR
0.0023472
Loading maneuver chart data...
Computing Atmospheric mass density...

Documentation

Showing up to 5 results
|